Theta_e
348 349 350 341 354 353 355 354 345 349 350 348 348 347 348 347 346 348 344 343 343 343 343 343 343 336 335 334 334 335 335 332 331 331 332 333 332 332 334 334 333 334 333 332 332 338 340 340 338
351 348 344 343 352 354 354 351 349 350 348 348 349 348 347 349 345 345 345 343 343 344 344 343 338 334 334 337 336 334 332 331 332 331 333 333 331 332 333 333 335 334 334 332 334 333 339 342 340
351 345 343 348 351 354 354 351 351 349 349 349 347 347 347 346 345 345 345 343 343 343 344 341 338 334 332 333 333 333 331 332 331 330 332 332 330 331 332 335 336 336 332 331 336 334 335 341 341
352 342 345 355 356 353 351 352 350 349 349 348 348 349 348 347 345 344 344 343 343 342 342 340 338 332 332 332 333 332 331 330 331 330 332 332 331 333 334 337 335 337 334 331 335 337 337 339 342
351 348 355 354 350 351 349 350 349 349 348 348 348 348 348 346 344 343 343 343 343 342 340 340 337 331 331 332 333 332 331 329 330 331 333 331 336 337 338 339 340 338 338 335 335 337 339 340 343
345 347 355 354 352 349 350 351 350 348 348 347 347 347 348 345 343 343 343 342 342 340 337 333 335 333 330 331 332 332 332 330 331 332 332 333 338 342 340 341 340 339 339 337 338 336 339 341 343
344 348 352 350 351 352 350 351 349 349 348 347 346 347 348 344 342 342 342 341 340 339 337 333 332 331 330 331 332 332 332 329 332 333 332 343 341 342 339 339 340 339 338 338 339 340 340 343 345
344 348 350 350 352 353 350 349 349 348 349 346 344 347 347 346 342 342 341 340 340 339 339 337 335 333 332 332 332 333 330 330 332 333 334 345 343 340 341 343 343 340 338 339 343 343 344 344 344
347 345 346 346 350 349 350 350 350 349 348 346 347 344 344 346 346 345 346 346 342 341 340 339 339 337 334 334 333 331 330 331 332 333 342 344 344 345 345 346 344 344 342 344 345 345 345 343 343
341 342 343 341 341 348 350 350 349 349 347 348 347 344 344 347 347 346 348 345 342 341 341 339 338 337 336 334 331 330 330 331 331 334 339 345 345 345 346 345 345 346 347 344 342 344 343 344 342
344 347 342 341 340 348 349 349 349 348 347 348 346 345 346 347 347 347 348 345 341 340 338 338 336 333 332 330 330 330 331 330 331 335 341 347 345 346 344 346 344 344 344 344 345 344 342 345 343
345 343 343 340 342 346 348 348 348 347 346 345 341 343 345 347 348 348 348 347 343 342 341 336 334 333 331 330 329 329 330 331 332 338 342 344 347 347 346 347 345 345 344 343 345 343 344 344 345
342 340 339 340 342 346 348 348 348 348 348 345 344 345 346 347 347 348 346 346 342 343 342 340 336 332 330 328 329 330 332 335 343 346 343 341 344 344 345 346 344 345 345 343 345 345 342 340 340
336 337 336 337 339 346 348 348 348 348 348 348 346 347 347 347 348 348 348 348 347 346 340 339 337 333 330 330 339 333 341 343 346 346 347 343 343 346 344 344 346 345 343 344 345 343 341 342 343
329 333 335 339 340 340 343 343 348 347 347 349 349 348 348 348 348 349 347 346 345 344 339 337 336 334 332 336 340 341 347 346 346 346 347 347 346 346 347 345 347 345 344 344 345 343 343 342 341
324 325 325 327 334 339 338 340 343 346 347 349 349 349 349 348 349 348 347 345 345 346 344 342 341 337 334 342 344 347 347 346 347 347 348 348 347 347 348 347 345 344 343 343 343 346 344 343 340
319 324 324 324 330 335 336 338 346 347 347 349 349 349 349 349 350 350 349 346 346 347 344 345 345 339 341 347 346 345 349 348 348 347 347 346 348 350 347 348 343 343 345 345 345 344 343 344 341
322 322 323 324 328 334 336 338 347 347 347 347 349 350 349 350 349 350 350 348 348 348 346 344 347 348 346 345 347 347 350 350 349 348 346 347 347 348 348 347 346 344 344 345 344 343 343 340 331
322 322 323 324 331 337 336 337 348 347 346 345 345 346 348 350 349 350 350 349 348 349 346 347 347 349 350 347 348 349 351 350 348 348 346 347 347 347 346 349 347 345 345 342 341 342 340 334 336
320 322 322 322 325 329 332 338 347 346 346 346 345 345 345 346 347 350 350 349 349 349 347 347 347 348 349 350 348 347 345 347 348 347 345 345 346 347 347 348 347 343 346 343 342 343 341 327 334
320 320 322 322 325 331 336 339 344 347 347 347 346 346 345 345 345 345 346 347 348 349 347 347 347 346 347 348 349 348 347 345 343 343 345 348 348 347 348 347 346 344 343 343 341 342 335 329 335
321 321 323 323 324 325 336 342 338 344 347 345 346 346 346 345 345 344 344 344 345 346 347 347 346 346 347 348 349 349 349 350 346 341 343 345 344 345 350 348 346 345 343 343 344 342 335 332 335
323 323 323 324 323 324 329 337 336 338 343 342 342 344 345 346 345 344 344 344 344 345 345 346 347 347 347 348 348 349 348 349 348 343 345 345 346 346 349 349 347 344 344 342 345 342 328 333 336
323 324 320 322 319 323 324 331 332 340 339 338 337 342 343 344 344 344 344 345 345 345 345 346 347 347 347 347 347 348 348 347 349 345 345 348 349 347 348 349 348 338 341 340 343 333 328 322 333
321 318 320 319 320 323 321 327 328 331 338 338 337 337 342 343 343 344 343 344 345 346 346 345 346 347 347 347 347 348 348 347 346 347 343 349 348 348 346 348 348 340 337 340 338 329 326 325 326
319 320 317 320 320 321 322 326 327 331 334 338 339 339 338 341 342 343 343 343 344 345 345 345 345 346 347 347 347 347 347 348 348 346 343 347 345 345 343 346 347 344 340 336 328 323 326 325 321
319 320 319 316 320 319 322 324 328 330 331 333 337 339 339 339 342 342 343 343 343 344 344 344 345 345 346 346 347 347 347 348 349 346 344 346 344 344 346 346 346 345 340 335 327 319 323 321 319
321 316 319 310 320 320 319 324 327 330 331 332 336 339 340 339 340 341 342 343 343 343 344 344 344 344 345 346 346 347 347 347 349 348 341 343 345 346 348 348 346 343 337 332 329 322 319 320 320
319 319 316 316 314 319 318 321 322 327 330 332 335 339 340 340 340 340 341 342 342 342 343 344 344 344 345 345 346 347 347 347 348 350 339 341 342 346 348 348 347 343 342 337 331 334 324 320 320
322 320 315 317 317 315 320 320 323 325 324 327 333 339 341 342 341 339 341 341 342 342 343 343 344 344 344 345 345 346 347 347 348 349 344 339 342 346 349 349 349 347 346 345 345 344 342 336 321
Wind_Speed
9 8 5 2 1 0 2 2 2 5 3 2 6 6 9 7 2 4 29 29 30 33 31 30 30 29 29 28 28 26 24 22 20 19 18 16 14 13 12 12 12 13 12 13 13 13 12 10 10
12 6 1 2 3 3 3 2 3 4 12 20 16 10 8 5 10 26 27 31 31 29 29 31 31 29 30 28 26 25 23 21 19 18 17 15 13 12 12 11 13 13 13 12 12 12 11 11 9
9 3 4 2 2 2 3 3 7 11 13 5 6 11 5 4 18 31 33 33 31 29 29 32 30 29 28 26 24 23 21 20 18 17 15 13 13 11 11 12 13 13 14 13 13 12 11 9 9
4 5 4 2 4 5 4 4 10 12 7 5 18 9 9 4 22 27 33 33 31 29 28 29 29 29 26 24 22 21 19 18 17 16 14 13 12 11 12 12 13 14 15 12 13 13 12 10 9
5 6 3 4 7 4 1 8 12 6 7 15 8 8 12 10 23 31 32 31 30 28 27 26 27 28 26 23 21 19 18 16 15 14 13 12 12 13 13 12 12 12 12 12 11 12 12 10 9
6 5 1 3 6 6 5 14 13 12 16 19 18 14 6 16 28 30 30 31 29 28 26 25 25 26 25 23 20 18 16 15 14 14 12 12 14 14 13 12 11 11 12 11 11 11 11 10 8
5 5 5 3 6 4 5 16 11 16 16 9 16 5 16 28 27 29 29 28 27 26 25 26 25 25 24 22 20 18 16 14 14 13 12 13 12 11 12 12 11 9 10 10 10 11 10 9 9
7 2 2 6 5 3 12 16 19 17 8 23 24 7 15 33 31 28 25 24 24 25 25 25 25 24 23 22 20 18 15 15 14 12 12 12 13 12 12 12 12 10 9 10 10 10 7 6 9
5 1 4 6 10 5 18 8 17 8 21 8 10 18 36 36 31 29 26 24 25 25 25 25 25 24 24 22 21 18 16 15 13 12 11 10 9 9 11 10 9 10 9 8 6 6 5 3 6
6 4 6 5 8 15 22 20 22 8 19 3 10 23 40 36 34 33 31 30 29 28 27 26 25 25 23 23 21 19 17 15 12 11 11 10 7 6 6 6 6 6 7 4 4 2 2 2 5
6 6 4 5 12 31 28 18 16 21 10 14 32 42 42 41 36 34 32 31 30 27 27 27 26 24 23 23 21 19 17 14 12 12 11 8 8 6 6 8 6 6 3 5 5 5 2 0 2
5 19 19 7 9 28 19 23 7 28 16 32 41 46 48 42 40 37 34 31 31 30 28 27 26 25 24 22 20 18 17 14 13 11 10 9 8 7 4 4 4 2 3 3 3 3 1 2 2
9 19 14 8 9 29 27 26 15 30 10 33 40 45 46 44 42 37 35 30 30 30 29 29 28 26 24 23 20 17 16 14 15 11 8 10 9 6 4 3 1 1 1 2 3 5 3 3 3
8 22 23 18 14 26 17 17 16 26 28 35 43 43 43 43 41 39 36 35 34 30 30 29 28 27 26 24 20 19 15 16 15 12 9 9 10 8 3 6 4 2 3 2 5 4 1 5 1
15 8 6 10 10 12 22 10 19 27 37 36 41 41 43 43 41 40 38 37 33 29 28 29 29 27 27 25 20 22 18 16 16 13 11 10 10 8 5 6 6 5 7 5 5 4 4 5 5
3 1 2 7 8 9 22 20 16 36 38 34 35 38 39 42 43 40 38 36 33 30 30 27 27 28 28 27 23 21 18 16 17 16 17 14 11 10 6 6 8 11 8 6 7 6 6 8 7
4 4 6 9 9 6 10 5 11 37 37 34 36 37 38 37 42 42 40 38 35 33 31 32 29 28 29 27 24 23 18 18 18 18 16 13 10 11 7 8 7 9 11 10 8 10 6 6 7
5 4 5 6 3 8 7 6 19 32 36 35 37 37 37 38 48 47 44 40 36 35 34 33 32 30 28 26 27 25 24 21 19 18 15 12 10 10 9 9 7 7 10 9 9 6 8 6 8
4 3 5 3 1 2 4 7 21 30 28 30 33 35 38 42 48 49 45 42 39 38 37 36 37 33 31 32 30 31 30 27 25 21 17 13 13 12 11 11 11 10 10 6 8 8 9 8 7
6 7 13 3 7 4 7 10 19 23 33 42 40 38 39 39 35 47 47 45 44 42 40 39 39 34 32 33 30 29 28 31 29 27 24 18 15 17 15 13 11 10 12 10 9 11 9 9 9
6 10 11 9 2 3 5 2 12 21 20 24 31 40 41 42 44 44 46 45 46 47 44 42 40 37 34 32 31 29 26 25 30 31 28 23 19 16 15 15 13 11 14 14 11 11 9 11 9
9 7 7 5 4 3 6 4 7 17 18 17 25 32 37 40 43 46 50 48 48 48 46 43 42 38 36 37 34 33 31 30 25 26 27 22 21 19 17 17 16 14 14 16 13 11 7 11 10
10 6 6 3 4 1 5 0 6 17 19 21 23 35 39 43 46 50 54 56 53 50 50 47 43 41 38 37 37 35 34 31 26 24 25 22 23 19 20 19 17 17 16 17 15 11 8 12 12
4 3 4 1 3 6 16 8 7 12 25 24 26 38 43 43 47 52 56 57 57 53 52 50 48 46 42 39 38 38 36 32 30 25 27 26 22 22 22 20 18 17 18 17 14 11 10 12 14
5 7 3 3 4 10 9 6 14 9 21 26 25 40 46 47 47 52 53 47 52 56 57 55 53 51 47 44 40 39 38 33 30 28 29 26 25 26 24 23 20 16 16 15 14 13 13 11 13
8 13 6 7 3 6 4 9 8 15 16 30 41 46 47 45 48 52 58 57 58 59 60 59 57 55 52 49 45 41 38 34 30 29 28 32 29 26 23 23 20 17 15 15 15 15 14 13 14
6 11 12 3 2 2 5 8 5 9 11 12 21 26 37 44 48 52 60 58 58 60 61 63 62 59 56 52 48 45 41 37 34 29 29 34 31 27 25 22 20 18 17 17 16 15 15 14 13
14 8 4 2 11 12 4 7 7 11 17 11 13 20 34 42 45 53 54 60 58 58 60 61 61 61 58 54 50 47 42 40 37 30 33 34 36 32 28 26 23 20 19 20 18 16 17 17 15
5 8 3 6 6 7 3 11 8 10 13 12 15 27 37 42 48 54 56 51 57 59 58 60 60 60 60 56 52 49 45 43 41 34 35 36 34 32 31 28 26 21 21 21 21 18 18 19 19
15 11 9 5 12 8 13 11 3 17 14 9 15 27 37 46 46 44 53 51 51 53 57 60 58 59 59 58 53 49 45 45 44 38 37 40 38 36 33 30 29 26 25 25 25 22 21 21 22
Wind_Direction
156 143 145 360 351 94 314 270 135 111 87 129 156 120 109 51 56 142 145 144 141 142 146 148 148 143 135 132 133 133 132 130 129 127 121 116 112 108 103 92 86 82 84 85 90 97 104 113 127
150 116 348 325 66 31 296 263 151 78 130 107 87 100 52 72 107 139 149 149 147 147 148 149 148 145 141 139 137 134 133 131 129 128 120 115 106 101 96 87 81 79 80 83 87 96 107 117 125
130 351 332 42 42 212 239 198 100 124 136 94 106 75 73 97 133 142 150 151 151 146 149 150 151 150 146 145 142 140 137 132 131 123 117 111 98 96 94 81 76 77 80 82 86 95 106 112 115
24 359 5 47 311 270 265 147 128 143 104 81 106 74 81 151 133 147 151 154 151 148 151 154 157 155 151 150 148 143 138 135 127 124 120 107 98 96 88 78 77 79 82 85 94 98 106 114 119
49 29 343 343 296 262 238 144 133 130 91 121 101 96 105 152 143 147 154 158 156 153 154 156 160 161 160 157 153 148 148 139 129 126 117 107 100 95 88 85 80 79 86 94 100 102 104 109 118
96 86 320 281 284 293 130 161 148 103 109 108 104 105 96 153 151 149 153 157 159 157 158 158 163 166 168 165 161 159 155 144 135 128 121 111 103 92 90 88 85 87 97 105 105 105 104 103 113
134 137 193 224 277 255 153 178 150 135 135 123 131 88 136 156 153 150 152 155 160 162 162 164 166 170 172 171 170 167 159 151 141 137 126 110 110 101 90 89 89 89 104 109 116 112 108 106 94
114 105 231 179 245 270 152 174 164 146 135 144 135 156 165 165 155 152 155 162 167 169 170 170 172 175 176 175 176 172 165 156 150 142 129 122 108 112 106 100 102 88 96 109 106 111 103 86 74
153 115 218 206 183 175 159 156 171 168 144 156 170 172 166 163 162 163 165 171 178 180 180 178 178 179 180 180 180 176 170 162 159 148 134 137 125 117 111 104 99 97 101 105 109 89 76 45 64
171 195 237 191 151 166 179 171 170 134 157 164 131 156 159 164 171 171 175 178 183 183 183 185 184 184 180 182 183 178 174 169 165 156 148 146 140 139 125 99 113 111 95 92 89 58 106 35 35
203 226 260 205 177 164 175 189 172 147 186 185 151 156 162 171 178 179 182 186 184 184 186 189 189 187 185 185 183 181 176 174 173 166 167 163 162 130 110 105 115 102 110 79 67 94 82 204 14
248 247 245 336 172 167 173 174 178 171 189 177 164 164 166 174 183 186 186 187 188 191 193 193 193 191 189 187 186 182 181 182 179 174 184 181 172 166 127 132 105 97 103 62 51 40 85 12 282
237 257 274 247 157 176 168 180 184 197 183 172 164 165 172 177 185 190 188 185 185 191 194 197 195 194 191 189 185 186 190 183 168 169 161 171 189 188 189 154 178 76 116 313 305 334 283 143 116
234 244 257 275 171 177 171 193 174 208 172 168 168 172 179 182 188 192 194 193 195 196 193 195 199 197 194 189 188 189 184 181 184 181 185 188 186 198 210 227 229 245 292 308 311 299 186 163 196
255 265 297 267 255 170 195 213 199 188 172 170 173 176 182 189 191 196 195 197 197 196 192 195 198 197 197 188 184 182 185 193 206 212 209 204 208 214 238 260 248 245 303 276 299 299 235 241 253
260 84 280 277 181 226 182 212 200 174 169 177 179 177 185 194 197 200 200 201 202 199 198 193 195 196 192 190 188 192 204 217 221 217 208 210 217 217 241 260 262 253 231 255 264 281 280 247 231
343 220 222 300 180 171 181 197 167 171 176 178 182 184 191 194 203 206 207 208 206 203 202 197 196 193 193 198 199 201 205 212 212 216 217 220 215 217 244 253 274 252 231 255 249 284 250 233 258
197 202 244 234 276 183 195 184 162 174 181 182 185 188 192 199 208 208 211 213 212 208 208 205 203 204 204 204 207 210 213 218 217 219 226 228 225 228 254 249 272 254 240 255 267 239 212 271 283
191 231 248 133 202 74 263 177 176 178 186 187 189 187 196 206 212 209 212 216 214 214 212 211 209 211 210 211 211 213 217 222 224 229 230 231 239 237 258 258 257 255 247 261 232 223 229 276 194
192 227 259 300 213 194 222 204 187 179 195 192 190 191 196 202 205 209 214 216 217 215 214 213 212 215 214 217 217 221 226 231 235 237 234 236 231 235 248 260 260 266 238 241 239 234 264 218 206
199 203 241 241 15 220 119 2 179 204 215 199 202 199 201 199 195 208 211 215 216 215 213 215 215 216 215 217 216 219 225 231 234 233 227 230 231 231 233 247 250 261 237 237 244 245 277 207 204
238 195 247 255 56 239 125 240 194 200 212 210 206 207 209 208 209 208 213 214 216 219 218 219 218 219 219 216 215 217 224 228 228 223 224 221 226 231 236 238 242 252 238 235 242 254 256 216 207
242 185 197 201 205 168 223 155 247 176 209 216 207 210 212 211 208 210 213 218 218 219 219 220 221 221 222 220 221 222 227 232 228 225 214 214 228 229 230 236 240 243 235 238 241 248 249 214 218
179 305 28 35 144 239 247 172 245 194 202 211 211 211 212 211 213 215 218 218 221 222 222 221 223 223 223 224 225 226 231 232 226 223 221 226 227 221 227 236 243 235 232 232 231 233 232 227 228
135 110 265 276 198 233 220 194 230 204 208 210 205 212 212 211 211 216 220 214 219 222 222 223 223 224 224 225 227 229 232 237 233 226 223 223 220 223 226 233 237 232 232 226 230 227 228 231 228
194 188 161 199 208 234 156 231 233 216 227 215 217 215 213 209 209 213 219 220 219 222 223 224 226 226 226 227 227 230 233 235 236 231 229 222 224 227 230 235 239 240 233 234 226 224 231 237 233
193 198 195 141 183 11 226 275 304 211 234 238 216 208 210 208 207 213 219 221 221 222 224 225 226 227 228 228 228 229 232 234 234 230 229 224 225 230 235 240 239 242 233 236 231 228 232 236 235
190 171 162 359 222 239 252 248 218 194 217 225 231 204 214 212 209 215 217 221 222 225 228 228 229 228 229 229 230 230 232 234 235 231 227 226 227 230 233 234 238 238 232 232 235 234 233 237 236
181 202 201 164 162 216 215 252 183 205 211 212 218 212 213 210 211 215 221 219 226 227 227 229 229 230 229 230 230 230 232 234 234 232 228 226 224 225 229 230 234 233 228 228 231 235 236 240 238
206 199 162 163 221 244 234 233 333 192 203 204 219 220 226 221 219 212 218 221 220 219 223 230 230 231 232 231 229 231 232 234 235 232 231 226 225 226 230 232 234 237 236 235 237 238 240 245 245